Wind_Speed
11 12 11 11 11 11 11 11 9 8 7 6 5 5 5 5 5 5 5 5 5 6 7 6 6 6 4 3 3 3 3 3 4 4 3 4 4 5 5 3 1 2 3 3 2 2 3 4 5 8 11 13 12 9 5 2 0 0 2 3 3 3 3
11 12 12 12 12 12 11 10 9 8 7 6 5 5 5 6 6 6 5 4 4 5 6 6 6 6 5 4 4 4 4 4 4 4 4 3 3 5 6 4 4 6 6 5 4 4 4 4 4 4 6 11 15 16 14 11 7 6 4 3 5 6 5
13 13 14 13 12 11 10 9 8 7 7 6 6 6 6 6 5 4 3 2 2 3 4 5 5 6 6 7 7 6 6 5 4 4 5 5 4 4 6 7 6 7 5 4 4 5 4 4 5 6 6 8 11 13 15 16 14 13 12 10 10 10 10
13 14 15 15 13 11 10 10 8 8 7 7 7 7 6 5 4 3 2 2 2 2 3 3 4 5 8 10 11 10 9 8 7 7 7 7 7 7 7 7 6 5 5 5 5 5 5 6 7 7 8 10 11 11 13 15 16 16 16 16 16 16 16
11 12 14 15 14 12 12 11 10 9 8 8 8 7 6 5 4 4 3 3 3 3 2 3 5 7 8 10 11 11 10 10 10 11 11 12 12 12 10 9 8 7 7 7 7 6 7 9 9 9 9 10 11 11 11 13 16 16 16 16 17 17 18
10 10 12 13 13 12 12 12 11 10 9 8 8 7 6 5 5 5 5 4 4 3 3 4 6 7 7 8 8 8 8 9 10 11 12 13 13 13 13 12 10 9 8 8 7 7 7 10 11 10 9 8 9 9 8 9 12 14 15 15 14 15 16
11 11 11 12 13 12 12 12 12 11 9 8 7 6 6 5 5 6 6 5 5 5 5 5 5 5 6 6 6 7 8 9 9 10 11 11 10 11 11 11 11 10 10 9 7 6 6 8 9 10 10 8 8 8 7 8 9 10 12 13 13 14 14
12 12 12 12 12 12 12 12 11 11 9 8 6 5 5 5 5 6 7 7 7 7 6 5 4 4 4 4 5 6 8 8 8 9 9 10 10 10 10 12 12 11 11 10 8 7 5 5 7 11 12 9 7 6 7 8 9 9 9 10 13 14 13
13 12 13 13 12 11 11 11 11 10 8 7 6 5 5 4 4 6 7 7 8 9 8 7 6 4 3 4 5 6 7 8 8 8 9 10 10 11 11 12 12 11 11 10 10 10 9 8 8 10 10 8 7 6 5 6 7 8 8 8 10 13 12
14 13 13 14 13 12 11 10 10 10 9 7 6 5 5 4 4 5 5 6 7 8 9 9 8 6 5 5 6 6 7 7 7 8 9 10 11 11 12 12 12 12 11 11 10 11 12 11 9 8 7 7 6 5 5 4 4 6 7 7 8 10 11
15 13 12 13 13 13 13 12 11 10 9 7 5 5 4 4 4 4 3 4 4 6 7 8 8 7 7 6 6 6 6 6 7 8 8 9 10 10 11 11 11 11 10 10 10 10 11 12 12 9 7 5 4 3 5 5 4 4 6 7 8 8 9
16 15 12 13 14 15 15 14 12 11 9 8 6 5 4 4 4 3 2 2 3 4 5 6 7 7 7 6 6 6 5 5 6 7 8 8 8 8 8 9 9 9 9 8 9 9 10 11 12 11 10 8 6 5 5 6 5 4 4 6 7 7 8
17 16 14 14 15 16 15 12 11 11 10 9 7 6 5 5 4 3 3 2 2 3 3 4 5 5 5 5 5 4 4 3 4 5 7 7 7 6 6 6 7 7 7 8 9 9 10 10 10 10 10 11 10 9 6 6 7 6 5 5 5 6 8
19 18 16 16 15 15 14 11 10 10 10 9 8 8 6 6 5 4 3 2 2 2 1 2 2 3 3 4 3 3 3 2 2 2 3 5 5 5 5 5 5 5 5 6 8 8 8 8 9 9 9 9 10 9 7 7 9 8 6 5 5 6 8
19 19 19 17 15 14 14 13 11 10 10 9 8 8 7 6 5 4 3 1 1 1 1 1 1 0 1 2 3 3 3 2 1 1 1 3 3 3 3 3 4 4 3 4 5 6 6 6 7 8 9 9 9 10 8 7 8 8 7 5 5 5 8
18 19 19 18 15 15 15 15 12 11 11 10 8 8 6 5 4 4 3 2 1 1 2 2 2 2 2 3 3 4 4 4 5 5 4 4 4 3 2 2 2 3 3 3 4 4 4 5 6 7 9 10 10 10 10 8 7 7 7 6 4 4 5
16 17 17 16 15 15 16 15 13 12 12 11 10 9 7 5 5 5 5 4 3 3 2 3 3 3 4 4 4 5 6 7 8 8 8 7 6 5 4 4 4 3 3 3 4 4 4 4 5 6 8 9 10 10 10 9 7 7 7 6 5 4 4
14 14 14 14 14 15 17 16 14 13 13 12 13 11 9 7 5 6 7 7 5 5 4 4 5 5 5 6 6 8 9 10 9 10 11 12 11 9 7 7 6 5 5 5 5 5 4 4 5 5 7 7 8 9 9 9 8 7 6 6 5 5 5
14 14 13 13 12 15 17 16 15 15 14 13 13 13 12 10 8 9 10 9 8 8 7 6 7 8 8 8 8 9 11 12 10 9 12 15 16 15 12 9 9 8 8 7 6 6 6 5 4 4 5 6 7 8 8 8 8 7 7 6 5 4 4
13 13 13 13 14 16 17 18 18 17 15 13 13 14 14 13 13 13 12 11 11 11 10 10 11 10 10 10 10 11 13 14 13 13 14 15 17 18 16 12 10 10 10 10 8 7 7 6 5 5 5 5 6 7 8 8 7 7 6 5 4 3 3
10 10 11 12 14 16 18 19 20 18 16 14 13 15 17 16 14 13 11 10 11 11 11 12 14 12 11 11 11 12 13 13 14 15 16 16 18 19 18 15 13 11 10 11 11 10 8 7 6 6 5 5 5 5 6 7 6 5 4 3 3 2 2
10 10 10 11 13 16 18 19 20 19 16 14 13 14 16 16 14 12 11 11 13 14 14 14 13 12 11 10 10 10 10 11 13 13 14 16 17 17 17 16 15 13 11 12 14 13 12 10 8 7 5 4 4 5 5 5 4 3 2 2 2 2 1
10 11 11 12 12 15 17 18 18 17 16 13 12 13 14 14 13 13 13 15 17 18 16 13 12 11 11 10 10 10 10 11 11 11 13 14 14 13 13 13 14 14 14 15 15 16 15 13 10 8 6 5 6 5 5 4 3 2 1 1 2 2 3
8 9 11 11 12 13 14 15 15 15 15 13 13 14 15 14 13 13 14 14 14 14 13 12 11 11 11 10 10 10 10 9 9 10 11 12 12 11 10 10 10 11 13 15 16 16 16 14 12 10 8 8 7 5 4 3 2 1 1 1 1 2 3
7 8 10 10 11 11 12 13 14 14 14 14 15 16 16 14 12 11 12 12 12 12 11 11 11 10 9 8 7 7 7 8 8 9 10 10 11 11 10 10 10 9 10 12 13 12 14 15 13 11 11 10 8 5 4 1 1 2 2 2 2 2 3
5 5 8 10 10 10 10 11 13 15 15 14 15 15 13 11 10 9 10 10 10 9 9 8 8 8 7 6 5 4 4 4 5 6 8 9 10 10 10 9 9 10 10 10 10 9 13 17 15 13 13 11 8 5 4 3 2 3 4 4 3 3 3
4 3 4 7 8 9 8 9 12 13 13 12 12 11 10 9 9 9 8 8 8 7 7 7 8 9 8 7 6 4 2 2 3 5 7 8 9 10 9 8 7 8 9 9 8 8 12 17 17 15 13 10 7 6 5 4 4 5 5 5 4 4 5
3 3 3 4 6 7 7 7 9 10 8 9 9 9 8 8 8 8 7 7 7 7 8 9 9 9 9 9 7 6 4 2 2 4 6 7 8 9 9 9 8 7 7 7 6 6 12 18 18 16 13 9 7 6 5 5 6 6 6 6 6 6 7
2 2 2 2 4 7 7 7 7 8 9 9 9 10 9 9 8 8 7 6 6 6 6 7 9 9 10 10 9 8 6 4 3 2 3 4 5 6 6 6 6 5 5 5 4 6 12 17 18 15 11 9 8 7 6 6 6 6 6 6 7 7 8
0 1 1 2 4 6 8 9 10 11 11 10 9 8 8 8 8 8 7 6 5 4 4 6 7 8 10 10 10 9 7 6 4 2 1 2 3 4 3 2 2 2 2 3 3 7 13 16 16 13 10 8 7 6 5 6 6 6 6 7 8 8 8
3 5 6 6 7 9 11 12 12 12 11 10 10 9 9 10 9 8 7 6 5 4 4 5 6 7 9 9 9 9 8 6 5 3 2 2 3 4 4 4 3 2 1 0 3 8 13 14 12 9 8 8 7 6 6 6 6 6 6 7 7 7 8
3 6 9 10 11 12 13 14 13 12 12 12 11 11 11 10 8 7 7 6 6 5 4 4 5 6 7 8 9 9 8 7 6 5 5 5 5 5 4 4 4 4 4 3 6 10 11 9 7 6 5 6 6 7 6 5 4 4 5 5 5 6 7
8 7 7 9 11 12 13 14 14 14 14 13 12 12 11 9 7 6 5 5 5 5 5 3 2 3 5 6 7 8 8 8 7 7 8 7 8 8 7 7 7 6 6 7 8 9 8 6 5 4 3 4 5 5 5 4 4 4 4 4 6 7 7
15 14 11 10 10 11 12 13 14 15 16 15 13 13 12 10 8 6 5 4 4 4 5 4 2 0 2 4 5 6 7 7 7 8 9 9 9 10 10 10 10 8 8 8 8 6 5 4 3 3 3 4 4 4 3 3 4 5 5 5 7 7 8
15 16 16 15 15 14 13 12 13 15 16 15 15 14 13 12 9 7 5 3 2 2 2 2 2 0 1 3 4 6 6 6 6 7 9 10 11 11 11 11 10 9 7 6 6 4 3 2 2 2 3 3 3 3 3 2 3 4 5 6 7 8 9
14 14 16 17 19 20 20 18 17 17 17 16 16 15 14 13 11 8 6 4 3 2 1 2 3 2 3 3 4 6 7 6 6 7 9 11 12 12 12 11 10 8 6 5 3 2 1 1 1 1 1 1 2 3 3 3 4 5 6 7 8 9 9
15 14 15 16 19 21 23 24 24 24 23 21 19 17 16 14 12 10 9 7 7 7 6 5 5 5 4 4 5 7 8 8 8 9 10 12 13 13 13 12 10 8 6 4 3 2 2 1 1 1 1 2 4 5 4 4 5 7 7 8 8 9 10
Wind_Direction
134 137 139 133 128 126 122 120 118 113 107 100 96 92 88 79 63 51 48 61 80 85 83 82 79 77 82 100 114 130 144 148 153 162 172 181 191 192 197 215 201 75 75 96 111 143 151 119 83 70 66 66 65 61 58 71 147 73 42 42 63 82 65
138 140 144 140 134 131 127 124 122 118 111 101 96 99 98 86 73 65 60 65 80 83 79 75 72 68 68 84 101 110 121 127 131 132 137 152 168 180 183 179 135 106 88 76 95 132 145 136 126 105 87 76 65 58 65 78 85 88 85 80 82 86 81
146 146 147 145 141 137 131 127 127 121 115 109 102 104 103 90 77 68 65 70 72 75 74 67 63 65 73 87 96 98 104 109 110 112 112 116 126 149 163 163 143 124 114 95 105 134 146 127 120 117 105 90 73 59 61 69 75 78 80 80 80 80 81
154 154 152 150 147 144 139 133 129 123 119 119 116 113 111 98 81 68 77 95 87 82 68 48 59 81 91 95 95 92 91 91 94 105 109 105 106 117 136 149 148 136 133 131 131 143 146 129 124 119 105 97 90 77 67 68 72 74 74 73 73 75 77
163 161 158 156 152 149 146 139 132 127 126 126 125 122 116 98 75 70 83 97 100 88 46 53 84 100 103 100 96 92 88 87 90 100 108 109 108 114 124 130 129 125 121 123 132 149 151 140 132 125 120 111 99 91 82 77 74 71 69 67 67 69 73
172 166 161 155 151 150 148 141 136 133 134 133 130 124 110 89 73 79 88 92 94 78 63 89 104 108 106 102 96 92 92 93 96 102 109 110 111 114 119 121 118 116 117 122 132 144 150 148 141 131 126 120 113 109 98 87 83 74 67 64 64 66 70
178 168 161 152 147 149 146 140 134 132 137 141 138 127 107 85 77 85 87 85 85 78 77 94 108 109 107 101 95 96 100 102 103 106 109 110 111 113 117 119 115 111 111 115 120 126 143 154 151 142 133 122 116 116 104 93 89 80 68 61 60 63 69
186 171 159 149 146 148 147 141 132 125 130 138 142 137 114 90 81 84 80 74 73 71 71 79 96 108 107 98 97 103 105 105 105 106 107 109 111 114 118 116 111 108 107 108 105 102 117 146 152 148 143 134 122 116 111 99 84 75 72 66 60 57 63
195 177 160 152 149 148 149 146 134 121 119 125 136 142 129 105 90 87 79 69 65 63 63 66 75 91 103 100 104 108 105 101 101 102 105 110 111 113 115 112 107 105 104 101 96 93 99 117 141 156 160 154 143 133 125 113 92 74 64 65 64 55 56
204 189 168 158 152 148 148 148 142 128 114 112 127 139 145 132 112 101 89 76 68 64 64 65 67 75 89 101 106 105 102 95 91 95 104 110 112 111 112 109 106 105 103 98 93 89 89 96 115 146 171 177 166 155 144 126 104 82 60 54 61 54 51
208 199 179 162 156 155 154 154 158 145 120 114 126 134 151 155 137 125 108 89 79 71 68 66 65 68 76 89 101 102 99 93 84 87 100 108 110 110 111 109 107 106 103 99 92 86 84 85 89 99 121 157 179 163 143 129 105 83 70 60 59 55 52
208 203 188 169 164 169 170 165 165 155 129 123 130 133 151 165 162 156 142 119 99 84 73 67 64 62 62 68 84 94 95 92 86 89 98 105 106 108 110 108 107 107 104 103 100 95 92 88 83 81 86 99 115 117 127 133 119 90 79 74 68 64 64
205 202 193 182 176 178 182 176 166 154 137 137 143 145 158 168 170 172 165 162 138 108 89 71 62 55 54 56 64 75 79 81 90 97 103 106 106 109 112 105 101 102 102 107 109 106 101 94 87 83 81 83 92 98 105 118 118 109 91 83 82 76 73
205 202 196 193 188 184 191 193 176 157 146 149 156 156 163 172 178 181 172 167 160 142 127 91 67 50 42 36 36 45 51 61 89 109 117 120 115 111 114 108 100 100 105 110 113 113 110 103 93 89 87 84 86 91 94 101 112 119 109 88 85 79 73
205 202 198 197 195 194 202 206 192 168 158 163 170 167 164 174 187 197 194 180 175 184 191 191 179 75 18 357 353 351 350 346 297 266 203 174 158 134 125 123 108 103 114 121 122 121 115 111 105 98 94 93 93 93 95 100 109 119 122 107 95 82 71
204 203 200 199 198 202 213 219 212 190 176 179 189 188 178 179 198 215 220 223 246 264 263 265 271 276 283 302 308 306 308 303 289 279 262 233 218 205 183 173 151 123 125 136 139 137 127 119 112 105 101 97 97 96 98 106 112 120 130 124 110 101 75
202 202 202 203 204 208 217 225 223 210 197 195 202 207 202 200 217 237 242 242 241 241 251 268 276 284 294 296 295 295 296 291 284 278 270 258 244 235 222 212 211 191 169 170 166 158 150 139 123 113 109 102 99 98 97 103 111 122 136 133 116 105 84
204 204 208 212 214 217 221 224 224 220 215 210 209 214 217 218 235 254 256 255 253 247 249 261 274 291 301 294 290 295 293 284 276 274 275 274 266 255 240 227 226 218 204 198 192 185 177 163 145 130 123 115 109 103 98 100 105 113 124 125 117 97 76
220 220 224 229 231 229 226 222 221 223 226 224 218 217 219 218 227 246 253 253 254 258 262 268 282 295 296 290 286 281 278 276 273 270 271 272 270 265 255 242 237 233 224 217 210 205 199 189 177 157 142 133 125 117 110 107 106 107 107 107 110 98 74
231 232 240 245 241 234 227 221 220 224 228 228 222 221 223 221 220 231 240 242 246 253 258 269 284 288 287 289 283 267 265 271 276 275 270 268 267 264 258 250 246 244 241 236 232 227 218 208 198 184 165 142 131 128 123 117 113 111 109 106 101 93 80
237 237 244 246 238 229 223 220 219 222 224 225 224 226 230 230 226 226 228 233 243 250 260 276 283 280 280 289 286 274 268 267 270 274 272 268 266 262 258 255 251 248 249 249 249 246 237 227 215 199 181 151 133 133 130 124 121 118 115 117 105 86 95
238 237 242 243 234 225 221 218 216 219 223 227 230 231 232 231 226 224 229 240 251 257 265 276 278 274 277 285 284 279 274 268 267 271 272 270 269 265 261 260 256 249 248 252 250 244 239 236 224 213 202 175 156 145 138 131 124 123 120 108 93 61 50
241 237 235 234 227 218 216 214 214 218 221 225 230 231 232 230 225 229 242 251 256 257 259 263 266 268 270 270 274 278 276 272 270 269 269 270 270 269 267 266 263 256 252 254 248 239 238 234 220 217 221 205 187 169 150 137 112 105 57 28 47 18 359
249 239 231 226 220 214 212 212 212 216 216 215 221 227 231 232 230 236 246 251 251 249 248 253 258 260 260 259 267 272 269 267 266 263 265 267 270 275 276 278 278 268 261 260 251 238 234 231 220 216 214 202 197 191 170 144 92 59 343 3 32 2 348
270 252 236 226 219 214 213 213 212 213 212 210 215 221 225 226 226 232 238 239 238 238 242 250 252 247 245 245 250 256 259 262 263 262 265 269 273 278 282 286 288 282 274 268 259 242 227 219 215 211 207 203 198 193 190 182 31 356 321 319 329 324 325
301 266 241 232 231 229 228 225 221 218 213 210 212 215 217 217 213 214 219 221 225 233 240 241 232 220 211 206 206 218 241 262 271 274 276 277 279 282 287 293 291 287 285 279 271 254 224 211 207 203 201 202 199 203 230 251 279 304 293 289 295 297 298
323 302 251 233 234 237 233 230 233 231 223 216 215 212 214 218 212 204 203 205 209 214 210 201 194 189 185 180 177 177 194 256 282 284 283 283 286 288 290 291 288 288 290 287 283 262 222 207 203 198 197 202 207 218 237 245 256 273 273 274 278 277 284
316 298 267 233 229 232 227 224 231 230 217 207 202 188 182 186 182 177 179 181 184 182 176 174 175 178 180 180 179 184 195 222 263 281 286 288 291 291 289 287 282 280 283 285 284 251 216 206 202 198 199 206 212 218 228 240 255 262 258 264 269 266 275
27 324 291 260 244 238 230 217 201 180 163 159 154 146 141 139 134 137 142 147 155 163 169 172 175 180 187 188 189 192 199 208 223 266 292 303 311 309 303 293 280 266 266 271 262 226 211 205 201 200 202 206 208 216 231 246 257 259 257 263 269 270 277
162 237 254 264 241 218 200 182 166 157 151 146 142 141 139 133 127 125 125 129 137 153 170 179 184 190 194 197 200 201 202 209 219 228 293 2 18 23 19 354 303 261 251 264 242 210 202 199 198 200 204 207 209 216 232 249 254 253 259 268 274 279 286
231 212 211 212 195 181 175 171 168 167 163 155 150 151 148 138 128 118 110 108 114 133 169 191 197 200 202 202 206 208 206 208 212 200 156 99 80 70 65 70 78 89 103 169 199 190 190 193 199 204 209 210 212 219 231 244 250 257 272 280 284 293 301
267 219 214 207 190 180 179 179 177 175 170 161 156 156 154 145 130 116 102 91 89 101 132 174 195 204 204 200 203 208 206 200 197 185 159 134 118 103 93 93 94 93 102 134 167 175 181 189 199 206 215 217 217 222 230 237 246 266 281 283 287 297 301
284 265 237 217 205 197 192 189 185 180 177 173 169 167 168 162 149 131 109 86 75 74 76 89 154 201 199 190 193 201 199 191 186 176 158 143 131 125 122 116 111 114 124 141 161 171 176 183 189 193 202 207 211 218 226 238 255 271 282 285 289 295 296
280 275 264 247 230 214 203 201 199 193 187 184 180 178 178 174 167 157 137 104 74 55 47 46 47 142 189 177 181 190 189 187 186 174 158 146 136 131 131 127 124 126 131 137 146 156 163 171 180 191 197 201 214 227 235 257 280 292 298 297 299 301 300
285 274 263 255 245 234 225 218 209 201 197 194 189 186 184 182 178 172 163 146 107 67 50 53 60 94 177 168 173 178 177 181 188 177 161 152 145 141 140 137 134 134 135 136 137 139 151 172 191 212 220 225 247 268 284 295 303 308 308 305 307 307 304
296 283 266 254 245 239 236 232 222 213 209 204 197 192 190 189 189 186 184 189 196 200 182 137 134 142 152 160 170 173 172 178 189 185 171 161 156 152 150 146 141 140 138 132 127 130 151 204 224 235 262 298 310 323 331 324 320 319 315 312 311 309 308
298 293 279 263 250 241 238 236 229 223 219 215 209 205 202 198 194 193 197 203 206 206 198 175 161 157 154 163 175 177 179 183 187 188 181 169 162 158 154 150 146 146 146 140 134 143 149 132 98 67 32 350 340 344 344 334 330 326 321 317 315 313 312
Height
825 827 829 831 833 834 835 836 837 837 837 837 837 837 837 837 837 837 837 837 838 838 838 838 839 839 839 839 839 840 840 840 841 841 841 842 843 843 844 845 845 846 847 846 846 845 846 849 851 851 851 851 849 849 849 850 850 851 851 851 851 851 851
825 827 829 831 832 834 835 837 838 838 838 837 837 838 838 838 838 838 838 839 839 839 839 839 839 839 839 839 839 840 840 840 840 840 841 842 842 843 844 845 846 846 847 847 847 846 845 847 849 850 851 851 851 851 850 850 851 851 850 851 851 850 850
824 827 829 831 832 834 835 837 838 838 838 838 838 838 839 839 839 839 839 839 840 840 840 840 840 840 840 840 840 840 840 840 840 840 841 841 842 842 843 844 846 846 846 847 847 847 846 846 848 849 851 851 852 853 853 852 852 852 852 852 851 851 851
824 826 828 830 832 834 835 836 838 839 839 839 839 839 839 840 840 840 840 841 841 841 841 841 841 841 841 841 841 841 841 841 841 841 841 841 841 842 843 844 845 845 845 846 846 846 846 846 847 849 851 851 852 854 854 853 853 853 853 853 853 852 852
823 825 827 829 831 833 835 836 838 839 839 839 839 840 840 841 841 841 841 842 842 842 842 842 842 842 842 843 842 842 843 842 842 842 842 842 842 843 844 845 845 845 845 846 846 846 846 846 847 849 851 852 853 855 855 854 854 854 854 854 854 854 854
823 825 827 828 830 832 834 836 837 838 839 840 840 840 841 841 841 842 842 843 843 843 844 844 844 844 844 845 845 844 844 844 844 844 844 844 844 844 845 845 846 846 846 846 846 846 846 847 847 848 850 852 853 854 856 855 855 856 856 856 856 856 856
824 825 827 828 830 832 833 835 837 838 839 840 841 841 841 842 842 843 843 844 844 844 845 845 845 846 846 846 846 846 846 846 846 846 846 846 846 845 846 846 846 847 847 847 847 847 847 847 847 848 850 852 853 854 855 856 856 857 857 858 858 857 857
824 825 826 828 829 831 833 834 835 837 838 840 841 841 842 843 843 844 844 844 845 845 845 846 846 847 847 848 848 848 847 848 848 848 848 847 847 847 847 847 847 848 848 848 848 848 848 848 848 849 849 851 853 854 855 856 857 858 859 859 859 859 858
823 824 825 827 829 831 832 833 834 835 837 839 840 841 842 843 844 844 845 845 845 846 846 846 847 848 848 849 849 849 849 849 849 849 849 849 848 848 848 848 849 849 850 850 850 850 849 849 849 850 850 849 851 853 854 856 857 858 859 860 860 860 859
823 823 824 826 828 830 831 832 833 834 835 838 839 841 842 843 844 845 845 846 846 846 846 847 848 848 849 850 850 851 851 851 851 851 851 850 850 850 850 850 850 851 851 851 851 851 851 850 850 850 851 850 849 850 851 854 857 859 860 860 860 860 860
822 823 824 825 828 829 830 831 833 833 834 836 839 840 842 843 844 845 845 846 846 847 847 847 848 849 850 851 851 852 852 852 852 852 852 852 852 852 852 851 852 852 852 853 853 853 852 852 852 851 851 851 850 850 850 853 857 860 861 861 861 861 861
821 823 824 825 827 828 829 830 832 833 834 836 838 839 841 842 843 844 845 846 846 847 847 848 849 849 850 851 852 852 853 853 853 853 853 853 853 854 854 853 853 853 853 853 853 854 854 853 853 853 852 852 851 851 851 852 855 860 861 861 862 861 861
820 823 824 825 825 827 829 830 831 832 833 835 837 838 840 841 842 844 844 846 846 847 848 848 849 850 850 851 852 853 853 854 854 854 854 854 854 854 855 855 855 854 854 854 854 854 854 854 854 854 854 853 852 853 853 852 854 859 862 862 862 862 861
819 822 823 824 825 826 829 831 831 832 832 834 836 837 839 841 842 843 844 845 846 847 848 848 849 850 851 852 852 853 854 854 855 855 855 855 855 855 855 855 855 855 855 855 855 855 855 855 855 855 854 855 854 854 855 855 856 859 861 862 862 862 861
819 821 822 824 825 826 828 830 831 831 831 834 836 837 838 840 842 843 844 845 846 846 847 848 848 850 850 852 852 853 854 854 855 856 855 856 855 855 855 855 855 855 856 856 856 856 856 855 855 855 855 855 856 855 856 856 857 858 861 862 862 862 861
818 820 821 823 825 826 827 829 830 830 831 833 835 836 838 839 841 843 844 845 846 846 846 847 848 849 850 851 852 852 853 854 855 856 856 856 856 855 855 855 855 855 855 856 856 856 856 856 856 856 855 855 856 856 856 857 857 858 860 861 862 862 861
818 819 821 822 824 825 826 828 829 830 831 832 834 836 837 838 840 841 843 844 845 845 846 846 847 848 849 850 851 852 853 853 854 856 857 857 856 856 855 855 855 855 855 855 856 856 856 856 856 856 855 855 855 856 856 856 857 858 858 860 860 861 860
817 819 821 822 823 825 826 827 828 829 830 831 833 835 836 837 838 840 841 843 844 844 845 846 846 847 848 849 850 852 853 853 853 854 856 857 857 856 855 855 854 854 855 855 855 855 855 856 856 856 856 856 855 855 856 856 857 857 858 859 860 860 860
817 818 820 821 822 823 825 826 827 828 829 830 832 833 833 835 836 838 840 841 842 842 843 844 845 846 847 848 849 850 851 852 852 852 854 856 857 856 855 854 854 854 854 854 854 855 855 855 856 856 856 855 855 855 855 856 857 857 858 859 859 859 860
816 817 819 819 820 822 823 825 826 827 828 829 830 831 832 833 834 835 837 838 839 840 841 842 844 845 845 846 847 848 849 850 851 851 852 853 854 854 854 853 852 852 854 855 855 854 855 855 855 855 856 856 856 855 855 855 856 857 858 858 859 859 859
815 816 817 818 819 820 821 823 824 826 827 828 829 830 831 831 832 833 835 836 837 838 839 840 842 843 844 845 845 846 847 848 848 849 849 850 851 851 851 851 850 851 853 854 854 854 854 855 855 855 856 856 856 856 856 856 856 857 857 858 858 858 858
814 815 816 817 818 819 820 822 823 825 826 828 828 829 830 831 832 833 834 835 836 836 837 839 840 841 842 843 844 844 845 846 846 847 847 847 848 848 848 848 848 849 850 851 852 853 853 854 854 855 855 855 856 856 856 856 856 856 857 857 857 857 858
814 815 815 816 817 819 820 821 823 824 825 827 828 829 829 830 831 831 832 833 834 834 836 837 838 839 840 841 842 842 843 843 844 844 845 845 845 845 845 845 846 846 847 848 849 850 851 852 852 853 854 854 854 855 855 856 856 856 856 856 856 857 857
814 815 815 816 817 818 820 821 822 823 824 825 826 828 828 829 829 829 830 831 832 833 834 835 836 837 838 839 840 841 841 842 842 842 843 843 843 843 844 844 844 844 845 845 846 848 850 850 851 851 852 853 853 853 854 854 855 855 855 855 856 856 856
815 815 816 817 817 818 819 820 821 822 823 824 824 825 826 827 827 827 828 829 830 831 832 833 834 835 836 838 839 839 840 840 841 841 841 841 842 842 842 842 842 842 842 843 844 846 848 849 850 850 851 852 852 852 853 853 854 854 854 855 855 855 856
816 816 816 817 818 818 819 819 820 820 820 821 822 823 824 825 825 825 826 827 828 830 830 831 832 834 835 836 837 838 839 839 840 840 840 840 840 840 840 840 840 841 841 841 842 844 845 846 848 849 849 850 851 852 852 852 853 853 854 854 854 855 855
815 816 817 817 817 818 818 819 819 819 818 819 820 821 822 824 824 824 825 826 827 828 829 830 831 833 834 835 836 837 838 839 839 839 839 839 839 838 838 839 839 839 839 840 841 841 843 844 846 848 849 849 850 851 851 851 852 852 853 853 854 854 854
815 816 816 817 817 817 818 818 819 819 819 820 820 821 822 823 823 823 824 825 826 827 828 829 831 832 833 834 835 836 837 837 838 838 838 838 837 837 837 837 837 838 838 838 839 840 841 843 845 847 848 849 850 850 850 851 851 851 852 852 852 853 852
814 815 816 816 817 817 817 818 818 818 819 820 821 821 822 822 823 824 825 826 826 827 828 829 830 831 832 833 834 835 836 836 836 837 836 836 836 836 836 836 836 836 837 837 838 839 841 843 845 846 847 848 849 849 850 850 850 851 851 851 851 851 851
814 815 816 817 817 817 817 817 818 818 819 820 821 822 823 823 824 824 825 826 827 828 828 829 829 830 831 832 833 833 834 835 835 835 835 835 835 835 835 835 835 836 836 837 837 839 840 843 845 846 847 847 848 849 849 849 850 850 850 850 850 850 849
814 814 816 817 817 816 816 817 817 818 819 820 822 823 824 824 824 825 826 826 827 828 828 828 829 829 830 831 831 832 833 833 834 834 834 834 835 835 835 835 835 836 836 837 838 839 841 843 845 845 846 847 847 848 848 848 849 849 849 849 848 848 847
814 814 815 816 816 816 816 817 817 818 819 820 822 823 824 824 825 825 826 826 827 828 828 828 828 828 829 829 830 831 832 832 833 833 834 834 834 835 835 835 836 836 837 838 839 840 842 844 845 845 846 847 847 847 847 847 848 848 848 848 847 847 846
814 814 814 814 815 815 816 816 817 818 819 820 821 822 823 823 824 825 825 826 826 826 826 827 827 827 827 828 829 830 831 831 832 833 833 834 834 835 836 836 837 837 838 839 840 841 843 844 845 845 846 847 847 847 847 847 847 847 847 847 846 846 845
813 813 813 814 813 813 814 815 816 816 817 818 819 820 821 821 822 823 824 824 824 824 825 825 825 826 826 827 827 828 829 830 831 832 833 834 834 835 836 837 838 838 839 840 841 842 843 843 844 845 845 846 846 846 846 847 846 846 846 845 845 844 843
811 811 811 812 812 812 812 813 814 815 816 817 817 818 819 819 820 821 821 822 823 823 824 824 824 825 825 826 826 827 829 830 831 831 832 833 834 835 836 837 838 839 840 840 841 842 842 843 844 844 844 845 845 845 845 846 845 845 844 844 843 842 841
808 808 808 809 809 809 810 810 811 812 814 815 815 816 816 817 817 818 819 820 821 822 823 823 824 824 825 825 826 827 828 829 830 831 832 833 834 835 836 837 838 839 840 840 840 841 842 842 843 843 843 844 844 844 844 844 844 844 843 842 841 840 839
806 806 806 806 806 807 807 807 808 809 810 811 812 813 814 815 815 815 817 818 820 821 822 823 823 824 825 825 826 827 828 829 830 831 832 832 833 834 835 836 837 838 839 839 840 840 841 841 842 842 843 843 843 843 843 843 843 842 841 840 839 839 838